Location: Bédeille
(43.0872°N, 1.1041°E)
Time: 02:31:47
(UTC+00:00)

Genesis I - Pass Details

Date: 03 February 2023
Orbit: 466 x 515 km, 64.5° (Epoch: 27 March)

Event Time Altitude Azimuth Distance (km) Brightness Sun altitude
Rises 18:52:48 0° 219° (SW) 2,633 7.5 -19.0°
Reaches altitude 10° 18:54:58 10° 222° (SW) 1,753 6.5 -19.4°
Maximum altitude 18:58:53 67° 305° (NW) 572 3.5 -20.1°
Enters shadow 19:00:24 35° 18° (NNE) 858 4.1 -20.3°
